Location: San Antonio
(29.4240°N, 98.4930°W)
Time: 16:00:05
(UTC-05:00)

Courier 1B - Pass Details

Date: 18 July 2024
Orbit: 962 x 1208 km, 28.3° (Epoch: 12 June)

Event Time Altitude Azimuth Distance (km) Brightness Sun altitude
Rises 12:50:37 0° 217° (SW) 4,098 10.8 75.9°
Reaches altitude 10° 12:54:01 10° 205° (SSW) 3,131 10.3 76.5°
Maximum altitude 13:00:14 26° 152° (SSE) 2,133 9.9 77.5°
Drops below altitude 10° 13:06:18 10° 99° (E) 3,054 10.4 78.5°
Sets 13:09:33 0° 87° (E) 3,981 10.8 78.9°
